sat.trackr.live / text

‹ back to catalog

CUBEBUG-2 (LO-74)

NORAD 39440 · 2013-066AA

PAYLOAD ACTIVE UNKNOWN

§ Identity

Operator
Country
ARGN
Launch date
2013-11-21
Launch site
DLS
Launch vehicle
Mass (kg)
RCS (m²)
0.11

Purposes: comms, tech_demo

External: N2YO · Heavens-Above · Gunter

§ Orbital elements

Epoch: 2026-05-24T19:37:01.813440Z

Period
96.41 min
Inclination
97.8896°
Eccentricity
0.0059583
Mean motion
14.93548951 rev/d
Perigee alt
545.4 km
Apogee alt
628.4 km
Semi-major
6,965.0 km
B*
3.1087e-4
RAAN
93.7028°
Arg perigee
104.3887°
Mean anomaly
256.3956°
Rev number
67,350

§ Raw data

CUBEBUG-2 (LO-74)1 39440U 13066AA  26144.81738210  .00003331  00000+0  31087-3 0  99942 39440  97.8896  93.7028 0059583 104.3887 256.3956 14.93548951673505

JSON: /api/v1/satellites/39440 · /tle

For live sub-satellite position, see the globe view (requires WebGL).

§ Visibility from observer

Set your observer location to see the next 7 days of passes ≥ 10°. The values pass through the URL so the page stays shareable.

No JS? Fill the form by hand. The geolocation button needs JavaScript.

§ Radio — SatNOGS DB

ModeDescriptionDownlinkUplink
FSK Mode U - FSK9k6 - AX.25 TLM 437.445 MHz
AFSK UHF 1K2 AFSK Telemetry 437.445 MHz

2 transmitters · refreshed weekly from db.satnogs.org